Wetterdaten: Montag, 27.07.2015
Datum Zeit Temp. A. Feuchte A. Luftdruck Regen Wind Richtung Richtung Sonnenschein ET UV Solar Taupunkt Windchill Windben Empfang
27.07.2015 00:04 15,5 C 75 % 1007,5 hPa 0,0 l/m 0,0 km/h (0 Bft) NO 38 0 min 0,000 mm 0,0 UV-I 0 W/m 11,1 C 15,5 C 0,0 km/h (0 Bft) 0,00 %
27.07.2015 00:09 15,5 C 75 % 1007,4 hPa 0,0 l/m 0,0 km/h (0 Bft) NO 40 0 min 0,000 mm 0,0 UV-I 0 W/m 11,1 C 15,5 C 0,0 km/h (0 Bft) 0,00 %
27.07.2015 00:14 15,5 C 75 % 1007,5 hPa 0,0 l/m 0,0 km/h (0 Bft) NO 46 0 min 0,000 mm 0,0 UV-I 0 W/m 11,1 C 15,5 C 0,0 km/h (0 Bft) 0,00 %
27.07.2015 00:19 15,5 C 75 % 1007,5 hPa 0,0 l/m 0,0 km/h (0 Bft) NO 46 0 min 0,000 mm 0,0 UV-I 0 W/m 11,1 C 15,5 C 0,0 km/h (0 Bft) 0,00 %
27.07.2015 00:24 15,5 C 73 % 1007,7 hPa 0,0 l/m 0,0 km/h (0 Bft) NO 54 0 min 0,000 mm 0,0 UV-I 0 W/m 10,7 C 15,5 C 0,0 km/h (0 Bft) 0,00 %
27.07.2015 00:29 15,5 C 71 % 1007,6 hPa 0,0 l/m 0,0 km/h (0 Bft) N 357 0 min 0,000 mm 0,0 UV-I 0 W/m 10,3 C 15,5 C 0,0 km/h (0 Bft) 0,00 %
27.07.2015 00:34 15,5 C 70 % 1007,7 hPa 0,0 l/m 0,0 km/h (0 Bft) NO 48 0 min 0,000 mm 0,0 UV-I 0 W/m 10,1 C 15,5 C 0,0 km/h (0 Bft) 0,00 %
27.07.2015 00:39 15,5 C 70 % 1007,7 hPa 0,0 l/m 0,0 km/h (0 Bft) NO 50 0 min 0,000 mm 0,0 UV-I 0 W/m 10,1 C 15,5 C 0,0 km/h (0 Bft) 0,00 %
27.07.2015 00:44 15,6 C 71 % 1007,9 hPa 0,0 l/m 0,0 km/h (0 Bft) N-NO 21 0 min 0,000 mm 0,0 UV-I 0 W/m 10,4 C 15,6 C 0,0 km/h (0 Bft) 0,00 %
27.07.2015 00:49 15,6 C 70 % 1007,8 hPa 0,0 l/m 0,0 km/h (0 Bft) NO 49 0 min 0,000 mm 0,0 UV-I 0 W/m 10,1 C 15,6 C 0,0 km/h (0 Bft) 0,00 %
27.07.2015 00:54 15,7 C 71 % 1008,0 hPa 0,0 l/m 0,0 km/h (0 Bft) N 11 0 min 0,000 mm 0,0 UV-I 0 W/m 10,5 C 15,7 C 0,0 km/h (0 Bft) 0,00 %
27.07.2015 00:59 15,7 C 72 % 1008,1 hPa 0,0 l/m 0,0 km/h (0 Bft) NO 49 0 min 0,000 mm 0,0 UV-I 0 W/m 10,7 C 15,7 C 0,0 km/h (0 Bft) 0,00 %
27.07.2015 01:04 15,8 C 73 % 1007,9 hPa 0,0 l/m 0,0 km/h (0 Bft) NO 42 0 min 0,000 mm 0,0 UV-I 0 W/m 11,0 C 15,8 C 0,0 km/h (0 Bft) 0,00 %
27.07.2015 01:09 15,8 C 75 % 1008,0 hPa 0,0 l/m 0,0 km/h (0 Bft) NO 47 0 min 0,000 mm 0,0 UV-I 0 W/m 11,4 C 15,8 C 0,0 km/h (0 Bft) 0,00 %
27.07.2015 01:14 15,8 C 77 % 1008,1 hPa 0,0 l/m 0,0 km/h (0 Bft) NO 54 0 min 0,000 mm 0,0 UV-I 0 W/m 11,8 C 15,8 C 0,0 km/h (0 Bft) 0,00 %
27.07.2015 01:19 15,7 C 78 % 1008,0 hPa 0,0 l/m 0,0 km/h (0 Bft) NO 47 0 min 0,000 mm 0,0 UV-I 0 W/m 11,9 C 15,7 C 0,0 km/h (0 Bft) 0,00 %
27.07.2015 01:24 15,6 C 78 % 1008,1 hPa 0,0 l/m 0,0 km/h (0 Bft) N-NO 33 0 min 0,000 mm 0,0 UV-I 0 W/m 11,8 C 15,6 C 0,0 km/h (0 Bft) 0,00 %
27.07.2015 01:29 15,5 C 79 % 1007,9 hPa 0,0 l/m 0,0 km/h (0 Bft) O 93 0 min 0,000 mm 0,0 UV-I 0 W/m 11,9 C 15,5 C 0,0 km/h (0 Bft) 0,00 %
27.07.2015 01:34 15,4 C 81 % 1007,7 hPa 0,0 l/m 0,0 km/h (0 Bft) NO 40 0 min 0,000 mm 0,0 UV-I 0 W/m 12,2 C 15,4 C 0,0 km/h (0 Bft) 0,00 %
27.07.2015 01:39 15,3 C 81 % 1007,8 hPa 0,3 l/m 0,0 km/h (0 Bft) NO 46 0 min 0,000 mm 0,0 UV-I 0 W/m 12,1 C 15,3 C 0,0 km/h (0 Bft) 0,00 %
27.07.2015 01:44 15,2 C 82 % 1007,7 hPa 0,0 l/m 0,0 km/h (0 Bft) NO 39 0 min 0,000 mm 0,0 UV-I 0 W/m 12,1 C 15,2 C 0,0 km/h (0 Bft) 0,00 %
27.07.2015 01:49 15,1 C 84 % 1007,9 hPa 0,0 l/m 0,0 km/h (0 Bft) NO 42 0 min 0,000 mm 0,0 UV-I 0 W/m 12,4 C 15,1 C 0,0 km/h (0 Bft) 0,00 %
27.07.2015 01:54 14,9 C 83 % 1008,1 hPa 0,0 l/m 0,0 km/h (0 Bft) NO 42 0 min 0,000 mm 0,0 UV-I 0 W/m 12,0 C 14,9 C 0,0 km/h (0 Bft) 0,00 %
27.07.2015 01:59 14,8 C 85 % 1008,0 hPa 0,0 l/m 0,0 km/h (0 Bft) NO 44 0 min 0,000 mm 0,0 UV-I 0 W/m 12,3 C 14,8 C 0,0 km/h (0 Bft) 0,00 %
27.07.2015 02:04 14,7 C 85 % 1007,8 hPa 0,0 l/m 0,0 km/h (0 Bft) NO 44 0 min 0,000 mm 0,0 UV-I 0 W/m 12,2 C 14,7 C 0,0 km/h (0 Bft) 0,00 %
27.07.2015 02:09 14,6 C 87 % 1007,6 hPa 0,0 l/m 0,0 km/h (0 Bft) NO 45 0 min 0,000 mm 0,0 UV-I 0 W/m 12,5 C 14,6 C 0,0 km/h (0 Bft) 0,00 %
27.07.2015 02:14 14,6 C 88 % 1007,6 hPa 0,0 l/m 0,0 km/h (0 Bft) NO 46 0 min 0,000 mm 0,0 UV-I 0 W/m 12,6 C 14,6 C 0,0 km/h (0 Bft) 0,00 %
27.07.2015 02:19 14,5 C 89 % 1007,8 hPa 0,0 l/m 0,0 km/h (0 Bft) NO 36 0 min 0,000 mm 0,0 UV-I 0 W/m 12,7 C 14,5 C 0,0 km/h (0 Bft) 0,00 %
27.07.2015 02:24 14,5 C 90 % 1007,6 hPa 0,0 l/m 0,0 km/h (0 Bft) NO 38 0 min 0,000 mm 0,0 UV-I 0 W/m 12,9 C 14,5 C 0,0 km/h (0 Bft) 0,00 %
27.07.2015 02:29 14,5 C 90 % 1007,7 hPa 0,0 l/m 0,0 km/h (0 Bft) NO 37 0 min 0,000 mm 0,0 UV-I 0 W/m 12,9 C 14,5 C 0,0 km/h (0 Bft) 0,00 %
27.07.2015 02:34 14,5 C 90 % 1007,8 hPa 0,0 l/m 0,0 km/h (0 Bft) NO 43 0 min 0,000 mm 0,0 UV-I 0 W/m 12,9 C 14,5 C 0,0 km/h (0 Bft) 0,00 %
27.07.2015 02:39 14,4 C 90 % 1007,8 hPa 0,3 l/m 0,0 km/h (0 Bft) NO 43 0 min 0,000 mm 0,0 UV-I 0 W/m 12,8 C 14,4 C 0,0 km/h (0 Bft) 0,00 %
27.07.2015 02:44 14,4 C 90 % 1007,9 hPa 0,0 l/m 0,0 km/h (0 Bft) NO 42 0 min 0,000 mm 0,0 UV-I 0 W/m 12,8 C 14,4 C 0,0 km/h (0 Bft) 0,00 %
27.07.2015 02:49 14,4 C 91 % 1007,8 hPa 0,0 l/m 0,4 km/h (0 Bft) N 352 0 min 0,000 mm 0,0 UV-I 0 W/m 12,9 C 14,4 C 4,0 km/h (1 Bft) 0,00 %
27.07.2015 02:54 14,4 C 91 % 1007,7 hPa 0,0 l/m 0,0 km/h (0 Bft) NO 48 0 min 0,000 mm 0,0 UV-I 0 W/m 12,9 C 14,4 C 0,0 km/h (0 Bft) 0,00 %
27.07.2015 02:59 14,4 C 92 % 1007,8 hPa 0,0 l/m 0,0 km/h (0 Bft) NO 48 0 min 0,000 mm 0,0 UV-I 0 W/m 13,1 C 14,4 C 0,0 km/h (0 Bft) 0,00 %
27.07.2015 03:04 14,4 C 92 % 1007,6 hPa 0,0 l/m 0,0 km/h (0 Bft) NO 40 0 min 0,000 mm 0,0 UV-I 0 W/m 13,1 C 14,4 C 0,0 km/h (0 Bft) 0,00 %
27.07.2015 03:09 14,4 C 92 % 1007,7 hPa 0,0 l/m 0,0 km/h (0 Bft) NO 36 0 min 0,000 mm 0,0 UV-I 0 W/m 13,1 C 14,4 C 0,0 km/h (0 Bft) 0,00 %
27.07.2015 03:14 14,3 C 92 % 1007,5 hPa 0,0 l/m 0,0 km/h (0 Bft) NO 41 0 min 0,000 mm 0,0 UV-I 0 W/m 13,0 C 14,3 C 0,0 km/h (0 Bft) 0,00 %
27.07.2015 03:19 14,3 C 93 % 1007,4 hPa 0,0 l/m 0,0 km/h (0 Bft) NO 36 0 min 0,000 mm 0,0 UV-I 0 W/m 13,2 C 14,3 C 0,0 km/h (0 Bft) 0,00 %
27.07.2015 03:24 14,3 C 93 % 1007,5 hPa 0,0 l/m 0,0 km/h (0 Bft) NO 36 0 min 0,000 mm 0,0 UV-I 0 W/m 13,2 C 14,3 C 0,0 km/h (0 Bft) 0,00 %
27.07.2015 03:29 14,3 C 93 % 1007,5 hPa 0,0 l/m 0,0 km/h (0 Bft) W-SW 256 0 min 0,000 mm 0,0 UV-I 0 W/m 13,2 C 14,3 C 0,0 km/h (0 Bft) 0,00 %
27.07.2015 03:34 14,3 C 93 % 1007,6 hPa 0,0 l/m 0,0 km/h (0 Bft) NO 41 0 min 0,000 mm 0,0 UV-I 0 W/m 13,2 C 14,3 C 0,0 km/h (0 Bft) 0,00 %
27.07.2015 03:39 14,3 C 93 % 1007,6 hPa 0,0 l/m 0,0 km/h (0 Bft) NO 42 0 min 0,000 mm 0,0 UV-I 0 W/m 13,2 C 14,3 C 0,0 km/h (0 Bft) 0,00 %
27.07.2015 03:44 14,3 C 93 % 1007,6 hPa 0,0 l/m 0,0 km/h (0 Bft) NO 36 0 min 0,000 mm 0,0 UV-I 0 W/m 13,2 C 14,3 C 0,0 km/h (0 Bft) 0,00 %
27.07.2015 03:49 14,3 C 93 % 1007,7 hPa 0,0 l/m 0,0 km/h (0 Bft) W-SW 253 0 min 0,000 mm 0,0 UV-I 0 W/m 13,2 C 14,3 C 0,0 km/h (0 Bft) 0,00 %
27.07.2015 03:54 14,2 C 93 % 1007,8 hPa 0,0 l/m 0,0 km/h (0 Bft) NO 42 0 min 0,000 mm 0,0 UV-I 0 W/m 13,1 C 14,2 C 0,0 km/h (0 Bft) 0,00 %
27.07.2015 03:59 14,2 C 93 % 1007,9 hPa 0,0 l/m 0,0 km/h (0 Bft) NO 42 0 min 0,000 mm 0,0 UV-I 0 W/m 13,1 C 14,2 C 0,0 km/h (0 Bft) 0,00 %
27.07.2015 04:04 14,2 C 92 % 1008,0 hPa 0,0 l/m 0,0 km/h (0 Bft) N 356 0 min 0,000 mm 0,0 UV-I 0 W/m 12,9 C 14,2 C 0,0 km/h (0 Bft) 0,00 %
27.07.2015 04:10 14,2 C 92 % 1008,0 hPa 0,0 l/m 0,0 km/h (0 Bft) NW 317 0 min 0,000 mm 0,0 UV-I 0 W/m 12,9 C 14,2 C 0,0 km/h (0 Bft) 0,00 %
27.07.2015 04:15 14,2 C 92 % 1008,0 hPa 0,3 l/m 0,0 km/h (0 Bft) NW 311 0 min 0,000 mm 0,0 UV-I 0 W/m 12,9 C 14,2 C 0,0 km/h (0 Bft) 0,00 %
27.07.2015 04:20 14,2 C 92 % 1008,0 hPa 0,0 l/m 0,0 km/h (0 Bft) N 356 0 min 0,000 mm 0,0 UV-I 0 W/m 12,9 C 14,2 C 0,0 km/h (0 Bft) 0,00 %
27.07.2015 04:25 14,2 C 92 % 1008,1 hPa 0,0 l/m 0,4 km/h (0 Bft) W-SW 248 0 min 0,000 mm 0,0 UV-I 0 W/m 12,9 C 14,2 C 4,0 km/h (1 Bft) 0,00 %
27.07.2015 04:30 14,2 C 92 % 1008,1 hPa 0,0 l/m 0,0 km/h (0 Bft) NO 45 0 min 0,000 mm 0,0 UV-I 0 W/m 12,9 C 14,2 C 0,0 km/h (0 Bft) 0,00 %
27.07.2015 04:35 14,2 C 92 % 1008,2 hPa 0,0 l/m 2,9 km/h (1 Bft) W-SW 256 0 min 0,000 mm 0,0 UV-I 0 W/m 12,9 C 14,2 C 4,0 km/h (1 Bft) 0,00 %
27.07.2015 04:40 14,2 C 92 % 1008,3 hPa 0,0 l/m 0,7 km/h (0 Bft) W-SW 256 0 min 0,000 mm 0,0 UV-I 0 W/m 12,9 C 14,2 C 4,0 km/h (1 Bft) 0,00 %
27.07.2015 04:45 14,1 C 92 % 1008,1 hPa 0,3 l/m 0,0 km/h (0 Bft) N-NO 15 0 min 0,000 mm 0,0 UV-I 0 W/m 12,8 C 14,1 C 0,0 km/h (0 Bft) 0,00 %
27.07.2015 04:50 14,0 C 92 % 1008,4 hPa 0,0 l/m 0,0 km/h (0 Bft) O 95 0 min 0,000 mm 0,0 UV-I 0 W/m 12,7 C 14,0 C 0,0 km/h (0 Bft) 0,00 %
27.07.2015 04:55 13,9 C 94 % 1008,4 hPa 0,0 l/m 5,4 km/h (1 Bft) NW 316 0 min 0,000 mm 0,0 UV-I 0 W/m 12,9 C 13,9 C 11,9 km/h (2 Bft) 0,00 %
27.07.2015 05:00 13,8 C 94 % 1008,2 hPa 0,0 l/m 0,0 km/h (0 Bft) N-NO 27 0 min 0,000 mm 0,0 UV-I 0 W/m 12,9 C 13,8 C 0,0 km/h (0 Bft) 0,00 %
27.07.2015 05:05 13,7 C 94 % 1008,2 hPa 0,0 l/m 0,0 km/h (0 Bft) NO 43 0 min 0,000 mm 0,0 UV-I 0 W/m 12,8 C 13,7 C 0,0 km/h (0 Bft) 0,00 %
27.07.2015 05:10 13,6 C 94 % 1008,2 hPa 0,0 l/m 0,0 km/h (0 Bft) NW 323 0 min 0,000 mm 0,0 UV-I 0 W/m 12,7 C 13,6 C 0,0 km/h (0 Bft) 0,00 %
27.07.2015 05:15 13,5 C 94 % 1008,4 hPa 0,0 l/m 1,4 km/h (1 Bft) W-NW 287 0 min 0,000 mm 0,0 UV-I 0 W/m 12,6 C 13,5 C 4,0 km/h (1 Bft) 0,00 %
27.07.2015 05:20 13,5 C 94 % 1008,5 hPa 0,0 l/m 0,0 km/h (0 Bft) O-NO 60 0 min 0,000 mm 0,0 UV-I 0 W/m 12,6 C 13,5 C 0,0 km/h (0 Bft) 0,00 %
27.07.2015 05:25 13,5 C 94 % 1008,4 hPa 0,0 l/m 1,4 km/h (1 Bft) W-SW 251 0 min 0,000 mm 0,0 UV-I 0 W/m 12,6 C 13,5 C 4,0 km/h (1 Bft) 0,00 %
27.07.2015 05:30 13,4 C 94 % 1008,5 hPa 0,0 l/m 0,0 km/h (0 Bft) N 356 0 min 0,000 mm 0,0 UV-I 0 W/m 12,5 C 13,4 C 0,0 km/h (0 Bft) 0,00 %
27.07.2015 05:35 13,4 C 95 % 1008,4 hPa 0,0 l/m 0,0 km/h (0 Bft) N 353 0 min 0,000 mm 0,0 UV-I 0 W/m 12,6 C 13,4 C 0,0 km/h (0 Bft) 0,00 %
27.07.2015 05:40 13,4 C 95 % 1008,5 hPa 0,0 l/m 0,0 km/h (0 Bft) N-NW 337 0 min 0,000 mm 0,0 UV-I 0 W/m 12,6 C 13,4 C 0,0 km/h (0 Bft) 0,00 %
27.07.2015 05:45 13,5 C 95 % 1008,3 hPa 0,0 l/m 0,0 km/h (0 Bft) N 5 0 min 0,000 mm 0,0 UV-I 0 W/m 12,7 C 13,5 C 0,0 km/h (0 Bft) 0,00 %
27.07.2015 05:50 13,5 C 95 % 1008,3 hPa 0,0 l/m 0,0 km/h (0 Bft) O-NO 68 0 min 0,000 mm 0,0 UV-I 0 W/m 12,7 C 13,5 C 0,0 km/h (0 Bft) 0,00 %
27.07.2015 05:55 13,5 C 95 % 1008,3 hPa 0,0 l/m 0,0 km/h (0 Bft) N 3 0 min 0,000 mm 0,0 UV-I 0 W/m 12,7 C 13,5 C 0,0 km/h (0 Bft) 0,00 %
27.07.2015 06:00 13,5 C 95 % 1008,4 hPa 0,0 l/m 0,0 km/h (0 Bft) O 80 0 min 0,000 mm 0,0 UV-I 0 W/m 12,7 C 13,5 C 0,0 km/h (0 Bft) 0,00 %
27.07.2015 06:05 13,5 C 95 % 1008,0 hPa 0,6 l/m 0,0 km/h (0 Bft) NO 35 0 min 0,000 mm 0,0 UV-I 20 W/m 12,7 C 13,5 C 0,0 km/h (0 Bft) 0,00 %
27.07.2015 06:10 13,5 C 96 % 1008,4 hPa 0,0 l/m 0,0 km/h (0 Bft) O-NO 63 0 min 0,000 mm 0,0 UV-I 20 W/m 12,9 C 13,5 C 0,0 km/h (0 Bft) 0,00 %
27.07.2015 06:15 13,5 C 96 % 1008,3 hPa 0,0 l/m 0,0 km/h (0 Bft) N-NO 33 0 min 0,000 mm 0,0 UV-I 20 W/m 12,9 C 13,5 C 0,0 km/h (0 Bft) 0,00 %
27.07.2015 06:20 13,5 C 96 % 1008,2 hPa 0,0 l/m 0,0 km/h (0 Bft) N-NO 16 0 min 0,000 mm 0,0 UV-I 20 W/m 12,9 C 13,5 C 0,0 km/h (0 Bft) 0,00 %
27.07.2015 06:25 13,5 C 96 % 1008,4 hPa 0,0 l/m 0,0 km/h (0 Bft) NO 48 0 min 0,000 mm 0,0 UV-I 30 W/m 12,9 C 13,5 C 0,0 km/h (0 Bft) 0,00 %
27.07.2015 06:30 13,5 C 96 % 1008,4 hPa 0,0 l/m 0,0 km/h (0 Bft) NO 47 0 min 0,000 mm 0,0 UV-I 30 W/m 12,9 C 13,5 C 0,0 km/h (0 Bft) 0,00 %
27.07.2015 06:35 13,6 C 96 % 1008,4 hPa 0,3 l/m 0,0 km/h (0 Bft) NW 310 0 min 0,000 mm 0,0 UV-I 30 W/m 13,0 C 13,6 C 0,0 km/h (0 Bft) 0,00 %
27.07.2015 06:40 13,6 C 96 % 1008,6 hPa 0,0 l/m 0,0 km/h (0 Bft) N-NO 27 0 min 0,000 mm 0,0 UV-I 30 W/m 13,0 C 13,6 C 0,0 km/h (0 Bft) 0,00 %
27.07.2015 06:45 13,7 C 96 % 1008,4 hPa 0,0 l/m 0,0 km/h (0 Bft) NO 34 0 min 0,000 mm 0,0 UV-I 30 W/m 13,1 C 13,7 C 0,0 km/h (0 Bft) 0,00 %
27.07.2015 06:50 13,7 C 96 % 1008,5 hPa 0,0 l/m 0,0 km/h (0 Bft) NO 47 0 min 0,000 mm 0,0 UV-I 30 W/m 13,1 C 13,7 C 0,0 km/h (0 Bft) 0,00 %
27.07.2015 06:55 13,8 C 96 % 1008,3 hPa 0,0 l/m 0,0 km/h (0 Bft) N-NO 26 0 min 0,000 mm 0,0 UV-I 30 W/m 13,2 C 13,8 C 0,0 km/h (0 Bft) 0,00 %
27.07.2015 07:00 13,8 C 96 % 1007,9 hPa 0,0 l/m 0,0 km/h (0 Bft) NO 41 0 min 0,000 mm 0,0 UV-I 30 W/m 13,2 C 13,8 C 0,0 km/h (0 Bft) 0,00 %
27.07.2015 07:05 13,8 C 96 % 1007,9 hPa 0,0 l/m 0,0 km/h (0 Bft) NO 42 0 min 0,000 mm 0,0 UV-I 30 W/m 13,2 C 13,8 C 0,0 km/h (0 Bft) 0,00 %
27.07.2015 07:10 13,9 C 96 % 1007,8 hPa 0,0 l/m 0,0 km/h (0 Bft) O-NO 60 0 min 0,000 mm 0,0 UV-I 40 W/m 13,3 C 13,9 C 0,0 km/h (0 Bft) 0,00 %
27.07.2015 07:15 13,9 C 95 % 1007,9 hPa 0,0 l/m 0,0 km/h (0 Bft) NO 44 0 min 0,000 mm 0,0 UV-I 40 W/m 13,1 C 13,9 C 0,0 km/h (0 Bft) 0,00 %
27.07.2015 07:20 13,9 C 95 % 1008,0 hPa 0,0 l/m 0,0 km/h (0 Bft) NO 35 0 min 0,000 mm 0,0 UV-I 40 W/m 13,1 C 13,9 C 0,0 km/h (0 Bft) 0,00 %
27.07.2015 07:25 13,8 C 95 % 1007,8 hPa 0,0 l/m 0,0 km/h (0 Bft) N 355 0 min 0,000 mm 1,0 UV-I 40 W/m 13,0 C 13,8 C 0,0 km/h (0 Bft) 0,00 %
27.07.2015 07:30 13,8 C 95 % 1007,9 hPa 0,0 l/m 0,0 km/h (0 Bft) NO 36 0 min 0,000 mm 1,0 UV-I 40 W/m 13,0 C 13,8 C 0,0 km/h (0 Bft) 0,00 %
27.07.2015 07:35 13,8 C 94 % 1007,8 hPa 0,0 l/m 0,0 km/h (0 Bft) N-NW 332 0 min 0,000 mm 1,0 UV-I 40 W/m 12,9 C 13,8 C 0,0 km/h (0 Bft) 0,00 %
27.07.2015 07:40 14,0 C 94 % 1007,9 hPa 0,0 l/m 0,0 km/h (0 Bft) NO 39 0 min 0,000 mm 1,0 UV-I 50 W/m 13,0 C 14,0 C 0,0 km/h (0 Bft) 0,00 %
27.07.2015 07:45 14,2 C 94 % 1008,0 hPa 0,0 l/m 0,0 km/h (0 Bft) NO 40 0 min 0,000 mm 1,0 UV-I 50 W/m 13,2 C 14,2 C 0,0 km/h (0 Bft) 0,00 %
27.07.2015 07:50 14,4 C 94 % 1008,1 hPa 0,0 l/m 0,0 km/h (0 Bft) N-NW 346 0 min 0,000 mm 0,0 UV-I 34 W/m 13,4 C 14,4 C 0,0 km/h (0 Bft) 0,00 %
27.07.2015 07:55 14,5 C 93 % 1008,0 hPa 0,0 l/m 0,0 km/h (0 Bft) W-NW 295 0 min 0,000 mm 0,0 UV-I 70 W/m 13,4 C 14,5 C 0,0 km/h (0 Bft) 0,00 %
27.07.2015 08:00 14,5 C 92 % 1007,9 hPa 0,0 l/m 0,0 km/h (0 Bft) NO 36 0 min 0,000 mm 1,0 UV-I 70 W/m 13,2 C 14,5 C 0,0 km/h (0 Bft) 0,00 %
27.07.2015 08:05 14,5 C 92 % 1007,8 hPa 0,0 l/m 0,0 km/h (0 Bft) NO 48 0 min 0,000 mm 1,0 UV-I 70 W/m 13,2 C 14,5 C 0,0 km/h (0 Bft) 0,00 %
27.07.2015 08:10 14,5 C 91 % 1007,8 hPa 0,0 l/m 0,0 km/h (0 Bft) O-NO 61 0 min 0,000 mm 1,0 UV-I 70 W/m 13,0 C 14,5 C 0,0 km/h (0 Bft) 0,00 %
27.07.2015 08:15 14,7 C 91 % 1007,5 hPa 0,0 l/m 0,0 km/h (0 Bft) NO 35 0 min 0,000 mm 1,0 UV-I 70 W/m 13,2 C 14,7 C 0,0 km/h (0 Bft) 0,00 %
27.07.2015 08:20 14,8 C 90 % 1007,8 hPa 0,0 l/m 0,0 km/h (0 Bft) NO 56 0 min 0,000 mm 0,0 UV-I 200 W/m 13,2 C 14,8 C 0,0 km/h (0 Bft) 0,00 %
27.07.2015 08:25 14,9 C 89 % 1007,8 hPa 0,0 l/m 0,0 km/h (0 Bft) NO 39 0 min 0,000 mm 1,0 UV-I 120 W/m 13,1 C 14,9 C 0,0 km/h (0 Bft) 0,00 %
27.07.2015 08:30 15,0 C 89 % 1007,7 hPa 0,0 l/m 0,0 km/h (0 Bft) N 349 0 min 0,000 mm 1,0 UV-I 120 W/m 13,2 C 15,0 C 0,0 km/h (0 Bft) 0,00 %
27.07.2015 08:35 15,0 C 89 % 1008,1 hPa 0,0 l/m 2,2 km/h (1 Bft) N-NO 15 5 min 0,000 mm 0,0 UV-I 300 W/m 13,2 C 15,0 C 4,0 km/h (1 Bft) 0,00 %
27.07.2015 08:43 14,9 C 89 % 1008,2 hPa 0,0 l/m 0,0 km/h (0 Bft) NW 313 0 min 0,000 mm 0,0 UV-I 200 W/m 13,1 C 14,9 C 0,0 km/h (0 Bft) 0,00 %
27.07.2015 08:48 14,8 C 90 % 1008,0 hPa 0,0 l/m 0,0 km/h (0 Bft) N-NW 338 0 min 0,000 mm 0,0 UV-I 200 W/m 13,2 C 14,8 C 0,0 km/h (0 Bft) 0,00 %
27.07.2015 08:53 14,8 C 90 % 1008,0 hPa 0,0 l/m 0,0 km/h (0 Bft) NO 56 0 min 0,000 mm 0,0 UV-I 200 W/m 13,2 C 14,8 C 0,0 km/h (0 Bft) 0,00 %
27.07.2015 08:58 14,8 C 90 % 1008,1 hPa 0,0 l/m 0,0 km/h (0 Bft) N 355 0 min 0,000 mm 1,0 UV-I 200 W/m 13,2 C 14,8 C 0,0 km/h (0 Bft) 0,00 %
27.07.2015 09:03 14,8 C 91 % 1008,1 hPa 0,0 l/m 0,0 km/h (0 Bft) N-NW 345 0 min 0,000 mm 1,0 UV-I 123 W/m 13,3 C 14,8 C 0,0 km/h (0 Bft) 0,00 %
27.07.2015 09:08 14,8 C 91 % 1008,4 hPa 0,0 l/m 0,0 km/h (0 Bft) W-NW 299 0 min 0,000 mm 1,0 UV-I 123 W/m 13,3 C 14,8 C 0,0 km/h (0 Bft) 0,00 %
27.07.2015 09:13 14,9 C 91 % 1008,5 hPa 0,0 l/m 0,7 km/h (0 Bft) N 355 0 min 0,000 mm 0,0 UV-I 123 W/m 13,4 C 14,9 C 4,0 km/h (1 Bft) 0,00 %
27.07.2015 09:18 14,9 C 91 % 1008,6 hPa 0,0 l/m 0,0 km/h (0 Bft) W-NW 292 0 min 0,000 mm 1,0 UV-I 123 W/m 13,4 C 14,9 C 0,0 km/h (0 Bft) 0,00 %
27.07.2015 09:23 14,9 C 91 % 1008,7 hPa 0,3 l/m 0,0 km/h (0 Bft) N 349 0 min 0,000 mm 1,0 UV-I 123 W/m 13,4 C 14,9 C 0,0 km/h (0 Bft) 0,00 %
27.07.2015 09:28 14,9 C 92 % 1008,4 hPa 0,0 l/m 0,0 km/h (0 Bft) NO 45 0 min 0,000 mm 1,0 UV-I 123 W/m 13,6 C 14,9 C 0,0 km/h (0 Bft) 0,00 %
27.07.2015 09:33 14,9 C 91 % 1007,8 hPa 0,0 l/m 0,4 km/h (0 Bft) NW 320 0 min 0,000 mm 1,0 UV-I 123 W/m 13,4 C 14,9 C 4,0 km/h (1 Bft) 0,00 %
27.07.2015 09:38 15,0 C 91 % 1007,4 hPa 0,3 l/m 0,0 km/h (0 Bft) O-NO 76 0 min 0,000 mm 1,0 UV-I 125 W/m 13,5 C 15,0 C 0,0 km/h (0 Bft) 0,00 %
27.07.2015 09:43 15,0 C 90 % 1007,2 hPa 0,0 l/m 0,0 km/h (0 Bft) O-NO 61 0 min 0,000 mm 1,0 UV-I 150 W/m 13,4 C 15,0 C 0,0 km/h (0 Bft) 0,00 %
27.07.2015 09:48 15,1 C 90 % 1007,7 hPa 0,0 l/m 0,0 km/h (0 Bft) N-NO 17 0 min 0,000 mm 2,0 UV-I 150 W/m 13,5 C 15,1 C 0,0 km/h (0 Bft) 0,00 %
27.07.2015 09:53 15,5 C 89 % 1007,9 hPa 0,0 l/m 0,0 km/h (0 Bft) N-NO 32 0 min 0,000 mm 2,0 UV-I 140 W/m 13,7 C 15,5 C 0,0 km/h (0 Bft) 0,00 %
27.07.2015 09:58 15,9 C 87 % 1008,1 hPa 0,0 l/m 0,0 km/h (0 Bft) NO 41 0 min 0,000 mm 2,0 UV-I 140 W/m 13,7 C 15,9 C 0,0 km/h (0 Bft) 0,00 %
27.07.2015 10:03 16,4 C 85 % 1008,0 hPa 0,0 l/m 0,0 km/h (0 Bft) NO 48 0 min 0,000 mm 2,0 UV-I 140 W/m 13,9 C 16,4 C 0,0 km/h (0 Bft) 0,00 %
27.07.2015 10:08 16,8 C 84 % 1007,9 hPa 0,0 l/m 0,0 km/h (0 Bft) N-NO 22 0 min 0,000 mm 2,0 UV-I 140 W/m 14,1 C 16,8 C 0,0 km/h (0 Bft) 0,00 %
27.07.2015 10:13 17,3 C 83 % 1007,7 hPa 0,0 l/m 0,0 km/h (0 Bft) N-NW 327 0 min 0,000 mm 2,0 UV-I 140 W/m 14,4 C 17,3 C 0,0 km/h (0 Bft) 0,00 %
27.07.2015 10:18 17,5 C 82 % 1008,1 hPa 0,0 l/m 0,0 km/h (0 Bft) N-NO 23 0 min 0,000 mm 2,0 UV-I 140 W/m 14,4 C 17,5 C 0,0 km/h (0 Bft) 0,00 %
27.07.2015 10:23 17,4 C 81 % 1008,1 hPa 0,0 l/m 0,0 km/h (0 Bft) N-NO 17 0 min 0,000 mm 2,0 UV-I 140 W/m 14,1 C 17,4 C 0,0 km/h (0 Bft) 0,00 %
27.07.2015 10:28 17,5 C 82 % 1007,6 hPa 0,0 l/m 0,0 km/h (0 Bft) N-NO 31 0 min 0,000 mm 2,0 UV-I 200 W/m 14,4 C 17,5 C 0,0 km/h (0 Bft) 0,00 %
27.07.2015 10:33 17,7 C 80 % 1007,7 hPa 0,0 l/m 0,0 km/h (0 Bft) N-NO 26 0 min 0,000 mm 2,0 UV-I 200 W/m 14,2 C 17,7 C 0,0 km/h (0 Bft) 0,00 %
27.07.2015 10:38 18,0 C 78 % 1007,6 hPa 0,0 l/m 0,0 km/h (0 Bft) N-NO 27 0 min 0,000 mm 2,0 UV-I 200 W/m 14,1 C 18,0 C 0,0 km/h (0 Bft) 0,00 %
27.07.2015 10:43 18,1 C 80 % 1007,6 hPa 0,0 l/m 1,4 km/h (1 Bft) N-NO 23 0 min 0,000 mm 2,0 UV-I 200 W/m 14,6 C 18,1 C 4,0 km/h (1 Bft) 0,00 %
27.07.2015 10:48 18,0 C 80 % 1007,8 hPa 0,0 l/m 0,0 km/h (0 Bft) NO 36 0 min 0,000 mm 1,0 UV-I 150 W/m 14,5 C 18,0 C 0,0 km/h (0 Bft) 0,00 %
27.07.2015 10:53 17,9 C 80 % 1007,8 hPa 0,0 l/m 0,4 km/h (0 Bft) N 352 0 min 0,000 mm 1,0 UV-I 150 W/m 14,4 C 17,9 C 4,0 km/h (1 Bft) 0,00 %
27.07.2015 10:58 17,7 C 81 % 1007,7 hPa 0,0 l/m 0,7 km/h (0 Bft) NO 56 0 min 0,000 mm 1,0 UV-I 130 W/m 14,4 C 17,7 C 4,0 km/h (1 Bft) 0,00 %
27.07.2015 11:03 17,5 C 82 % 1007,7 hPa 0,0 l/m 0,0 km/h (0 Bft) N-NO 28 0 min 0,000 mm 1,0 UV-I 130 W/m 14,4 C 17,5 C 0,0 km/h (0 Bft) 0,00 %
27.07.2015 11:08 17,3 C 82 % 1007,8 hPa 0,0 l/m 0,4 km/h (0 Bft) NO 54 0 min 0,000 mm 1,0 UV-I 130 W/m 14,2 C 17,3 C 4,0 km/h (1 Bft) 0,00 %
27.07.2015 11:13 17,3 C 82 % 1007,7 hPa 0,0 l/m 1,8 km/h (1 Bft) NW 325 0 min 0,000 mm 2,0 UV-I 170 W/m 14,2 C 17,3 C 4,0 km/h (1 Bft) 0,00 %
27.07.2015 11:18 17,4 C 82 % 1007,6 hPa 0,0 l/m 0,0 km/h (0 Bft) NO 38 0 min 0,000 mm 3,0 UV-I 400 W/m 14,3 C 17,4 C 0,0 km/h (0 Bft) 0,00 %
27.07.2015 11:23 18,0 C 80 % 1007,5 hPa 0,0 l/m 6,5 km/h (2 Bft) W-NW 287 0 min 0,000 mm 2,0 UV-I 400 W/m 14,5 C 18,0 C 11,9 km/h (2 Bft) 0,00 %
27.07.2015 11:28 18,8 C 75 % 1007,7 hPa 0,0 l/m 7,2 km/h (2 Bft) W-NW 290 0 min 0,000 mm 3,0 UV-I 400 W/m 14,3 C 18,4 C 11,9 km/h (2 Bft) 0,00 %
27.07.2015 11:34 19,1 C 74 % 1007,6 hPa 0,0 l/m 3,2 km/h (1 Bft) W 271 0 min 0,000 mm 2,0 UV-I 400 W/m 14,4 C 19,1 C 4,0 km/h (1 Bft) 0,00 %
27.07.2015 11:39 18,9 C 75 % 1007,8 hPa 0,0 l/m 0,0 km/h (0 Bft) NO 49 0 min 0,000 mm 1,0 UV-I 400 W/m 14,4 C 18,9 C 0,0 km/h (0 Bft) 0,00 %
27.07.2015 11:44 18,7 C 75 % 1007,7 hPa 0,0 l/m 0,4 km/h (0 Bft) NO 44 0 min 0,000 mm 2,0 UV-I 400 W/m 14,2 C 18,7 C 4,0 km/h (1 Bft) 0,00 %
27.07.2015 11:49 18,7 C 74 % 1007,5 hPa 0,0 l/m 0,0 km/h (0 Bft) O 96 5 min 0,000 mm 2,0 UV-I 500 W/m 14,0 C 18,7 C 0,0 km/h (0 Bft) 0,00 %
27.07.2015 11:54 18,9 C 74 % 1007,6 hPa 0,0 l/m 1,8 km/h (1 Bft) W 272 5 min 0,000 mm 2,0 UV-I 500 W/m 14,2 C 18,9 C 4,0 km/h (1 Bft) 0,00 %
27.07.2015 11:59 19,3 C 73 % 1007,5 hPa 0,0 l/m 7,2 km/h (2 Bft) W 267 5 min 0,000 mm 2,0 UV-I 500 W/m 14,3 C 19,0 C 11,9 km/h (2 Bft) 0,00 %
27.07.2015 12:04 19,6 C 71 % 1007,5 hPa 0,0 l/m 3,2 km/h (1 Bft) S-SW 196 5 min 0,000 mm 3,0 UV-I 500 W/m 14,2 C 19,6 C 7,9 km/h (2 Bft) 0,00 %
27.07.2015 12:09 19,8 C 67 % 1007,6 hPa 0,0 l/m 9,0 km/h (2 Bft) S 185 5 min 0,000 mm 3,0 UV-I 500 W/m 13,5 C 18,8 C 15,8 km/h (3 Bft) 0,00 %
27.07.2015 12:14 19,9 C 68 % 1007,5 hPa 0,0 l/m 0,4 km/h (0 Bft) O 100 5 min 0,000 mm 1,0 UV-I 500 W/m 13,8 C 19,9 C 4,0 km/h (1 Bft) 0,00 %
27.07.2015 12:19 19,7 C 66 % 1007,4 hPa 0,0 l/m 6,5 km/h (2 Bft) S 173 0 min 0,000 mm 1,0 UV-I 130 W/m 13,2 C 19,7 C 7,9 km/h (2 Bft) 0,00 %
27.07.2015 12:24 19,4 C 67 % 1007,4 hPa 0,0 l/m 0,4 km/h (0 Bft) N 349 0 min 0,000 mm 1,0 UV-I 130 W/m 13,1 C 19,4 C 4,0 km/h (1 Bft) 0,00 %
27.07.2015 12:29 19,2 C 66 % 1007,5 hPa 0,0 l/m 0,0 km/h (0 Bft) N 353 0 min 0,000 mm 2,0 UV-I 140 W/m 12,7 C 19,2 C 0,0 km/h (0 Bft) 0,00 %
27.07.2015 12:34 19,2 C 65 % 1007,5 hPa 0,0 l/m 1,4 km/h (1 Bft) N-NW 334 0 min 0,000 mm 2,0 UV-I 300 W/m 12,5 C 19,2 C 4,0 km/h (1 Bft) 0,00 %
27.07.2015 12:39 19,3 C 65 % 1007,2 hPa 0,0 l/m 0,4 km/h (0 Bft) W-NW 292 0 min 0,000 mm 2,0 UV-I 300 W/m 12,6 C 19,3 C 4,0 km/h (1 Bft) 0,00 %
27.07.2015 12:44 19,6 C 63 % 1007,3 hPa 0,0 l/m 2,9 km/h (1 Bft) N-NO 15 0 min 0,000 mm 2,0 UV-I 300 W/m 12,4 C 19,6 C 4,0 km/h (1 Bft) 0,00 %
27.07.2015 12:49 19,8 C 61 % 1007,2 hPa 0,0 l/m 4,3 km/h (1 Bft) NW 308 0 min 0,000 mm 3,0 UV-I 300 W/m 12,1 C 19,8 C 7,9 km/h (2 Bft) 0,00 %
27.07.2015 12:54 20,1 C 60 % 1007,1 hPa 0,0 l/m 0,0 km/h (0 Bft) NO 49 5 min 0,000 mm 4,0 UV-I 600 W/m 12,1 C 20,1 C 0,0 km/h (0 Bft) 0,00 %
27.07.2015 12:59 20,6 C 58 % 1007,2 hPa 0,0 l/m 1,4 km/h (1 Bft) O-NO 65 0 min 0,000 mm 6,0 UV-I 120 W/m 12,0 C 20,6 C 4,0 km/h (1 Bft) 0,00 %
27.07.2015 13:04 21,5 C 55 % 1007,0 hPa 0,0 l/m 3,2 km/h (1 Bft) W 259 0 min 0,000 mm 3,0 UV-I 120 W/m 12,1 C 21,5 C 4,0 km/h (1 Bft) 0,00 %
27.07.2015 13:09 22,0 C 54 % 1007,1 hPa 0,0 l/m 4,7 km/h (1 Bft) N-NW 338 0 min 0,000 mm 5,0 UV-I 120 W/m 12,3 C 22,0 C 7,9 km/h (2 Bft) 0,00 %
27.07.2015 13:14 21,9 C 56 % 1007,1 hPa 0,0 l/m 4,7 km/h (1 Bft) W-SW 248 5 min 0,000 mm 5,0 UV-I 677 W/m 12,7 C 21,9 C 7,9 km/h (2 Bft) 0,00 %
27.07.2015 13:19 22,0 C 54 % 1007,1 hPa 0,0 l/m 6,8 km/h (2 Bft) W-NW 287 0 min 0,000 mm 3,0 UV-I 200 W/m 12,3 C 21,9 C 7,9 km/h (2 Bft) 0,00 %
27.07.2015 13:24 22,1 C 54 % 1006,8 hPa 0,0 l/m 7,2 km/h (2 Bft) W 274 5 min 0,000 mm 4,0 UV-I 700 W/m 12,3 C 21,8 C 7,9 km/h (2 Bft) 0,00 %
27.07.2015 13:29 22,1 C 54 % 1006,8 hPa 0,0 l/m 1,4 km/h (1 Bft) N 3 0 min 0,000 mm 5,0 UV-I 100 W/m 12,3 C 22,1 C 4,0 km/h (1 Bft) 0,00 %
27.07.2015 13:34 22,3 C 53 % 1006,8 hPa 0,0 l/m 3,2 km/h (1 Bft) NO 41 0 min 0,000 mm 5,0 UV-I 100 W/m 12,2 C 22,3 C 7,9 km/h (2 Bft) 0,00 %
27.07.2015 13:39 22,3 C 54 % 1006,8 hPa 0,0 l/m 6,5 km/h (2 Bft) W-SW 256 0 min 0,000 mm 5,0 UV-I 100 W/m 12,5 C 22,3 C 11,9 km/h (2 Bft) 0,00 %
27.07.2015 13:44 22,0 C 54 % 1006,8 hPa 0,0 l/m 0,4 km/h (0 Bft) N 350 0 min 0,000 mm 5,0 UV-I 120 W/m 12,3 C 22,0 C 4,0 km/h (1 Bft) 0,00 %
27.07.2015 13:49 22,1 C 56 % 1006,7 hPa 0,0 l/m 5,8 km/h (2 Bft) W 278 0 min 0,000 mm 5,0 UV-I 120 W/m 12,9 C 22,1 C 7,9 km/h (2 Bft) 0,00 %
27.07.2015 13:54 22,5 C 53 % 1006,5 hPa 0,0 l/m 0,7 km/h (0 Bft) W-SW 256 0 min 0,000 mm 4,0 UV-I 120 W/m 12,4 C 22,5 C 4,0 km/h (1 Bft) 0,00 %
27.07.2015 13:59 23,0 C 54 % 1006,4 hPa 0,0 l/m 0,4 km/h (0 Bft) O-NO 71 0 min 0,000 mm 2,0 UV-I 190 W/m 13,2 C 23,0 C 4,0 km/h (1 Bft) 0,00 %
27.07.2015 14:04 22,8 C 54 % 1006,5 hPa 0,0 l/m 5,8 km/h (2 Bft) N-NW 336 0 min 0,000 mm 2,0 UV-I 300 W/m 13,0 C 22,8 C 7,9 km/h (2 Bft) 0,00 %
27.07.2015 14:09 22,4 C 53 % 1006,4 hPa 0,0 l/m 9,4 km/h (2 Bft) W-SW 256 0 min 0,000 mm 2,0 UV-I 400 W/m 12,3 C 21,5 C 11,9 km/h (2 Bft) 0,00 %
27.07.2015 14:14 22,1 C 56 % 1006,4 hPa 0,0 l/m 11,9 km/h (2 Bft) W-SW 238 0 min 0,000 mm 1,0 UV-I 120 W/m 12,9 C 20,5 C 15,8 km/h (3 Bft) 0,00 %
27.07.2015 14:19 21,6 C 56 % 1006,2 hPa 0,0 l/m 6,5 km/h (2 Bft) W 278 0 min 0,000 mm 4,0 UV-I 120 W/m 12,4 C 21,6 C 11,9 km/h (2 Bft) 0,00 %
27.07.2015 14:24 21,6 C 55 % 1006,3 hPa 0,0 l/m 7,9 km/h (2 Bft) W-NW 288 0 min 0,000 mm 5,0 UV-I 120 W/m 12,2 C 21,1 C 11,9 km/h (2 Bft) 0,00 %
27.07.2015 14:29 22,0 C 55 % 1006,1 hPa 0,0 l/m 11,5 km/h (2 Bft) W-SW 240 0 min 0,000 mm 5,0 UV-I 120 W/m 12,5 C 20,5 C 15,8 km/h (3 Bft) 0,00 %
27.07.2015 14:34 22,8 C 52 % 1006,0 hPa 0,0 l/m 2,9 km/h (1 Bft) W 271 0 min 0,000 mm 5,0 UV-I 120 W/m 12,4 C 22,8 C 4,0 km/h (1 Bft) 0,00 %
27.07.2015 14:39 23,4 C 51 % 1006,2 hPa 0,0 l/m 0,0 km/h (0 Bft) N-NO 27 0 min 0,000 mm 5,0 UV-I 120 W/m 12,7 C 23,4 C 0,0 km/h (0 Bft) 0,00 %
27.07.2015 14:44 23,7 C 50 % 1006,0 hPa 0,0 l/m 2,9 km/h (1 Bft) W 280 5 min 0,000 mm 4,0 UV-I 800 W/m 12,6 C 23,7 C 7,9 km/h (2 Bft) 0,00 %
27.07.2015 14:49 23,8 C 49 % 1005,8 hPa 0,0 l/m 1,4 km/h (1 Bft) N 351 5 min 0,000 mm 2,0 UV-I 700 W/m 12,4 C 23,8 C 4,0 km/h (1 Bft) 0,00 %
27.07.2015 14:54 24,0 C 46 % 1005,9 hPa 0,0 l/m 5,8 km/h (2 Bft) W-NW 303 0 min 0,000 mm 4,0 UV-I 120 W/m 11,7 C 24,0 C 7,9 km/h (2 Bft) 0,00 %
27.07.2015 14:59 24,0 C 47 % 1005,6 hPa 0,0 l/m 7,9 km/h (2 Bft) W-SW 254 0 min 0,000 mm 4,0 UV-I 120 W/m 12,0 C 23,6 C 11,9 km/h (2 Bft) 0,00 %
27.07.2015 15:04 24,1 C 50 % 1005,8 hPa 0,0 l/m 0,4 km/h (0 Bft) N-NW 337 0 min 0,000 mm 4,0 UV-I 120 W/m 13,0 C 24,1 C 4,0 km/h (1 Bft) 0,00 %
27.07.2015 15:09 24,6 C 45 % 1005,7 hPa 0,0 l/m 2,2 km/h (1 Bft) N-NW 342 0 min 0,000 mm 4,0 UV-I 120 W/m 11,9 C 24,6 C 4,0 km/h (1 Bft) 0,00 %
27.07.2015 15:14 24,6 C 47 % 1005,8 hPa 0,0 l/m 0,4 km/h (0 Bft) O 93 0 min 0,000 mm 4,0 UV-I 120 W/m 12,5 C 24,6 C 4,0 km/h (1 Bft) 0,00 %
27.07.2015 15:19 24,3 C 44 % 1005,7 hPa 0,0 l/m 11,9 km/h (2 Bft) W 281 0 min 0,000 mm 4,0 UV-I 120 W/m 11,3 C 23,0 C 15,8 km/h (3 Bft) 0,00 %
27.07.2015 15:24 23,9 C 46 % 1005,8 hPa 0,0 l/m 4,7 km/h (1 Bft) SW 231 0 min 0,000 mm 4,0 UV-I 120 W/m 11,6 C 23,9 C 7,9 km/h (2 Bft) 0,00 %
27.07.2015 15:29 23,9 C 44 % 1005,7 hPa 0,0 l/m 15,5 km/h (3 Bft) SW 234 0 min 0,000 mm 4,0 UV-I 120 W/m 10,9 C 21,9 C 19,8 km/h (3 Bft) 0,00 %
27.07.2015 15:34 24,2 C 44 % 1005,7 hPa 0,0 l/m 3,2 km/h (1 Bft) SW 214 0 min 0,000 mm 4,0 UV-I 120 W/m 11,2 C 24,2 C 4,0 km/h (1 Bft) 0,00 %
27.07.2015 15:39 24,4 C 45 % 1005,7 hPa 0,0 l/m 0,4 km/h (0 Bft) O-SO 105 0 min 0,000 mm 4,0 UV-I 120 W/m 11,7 C 24,4 C 4,0 km/h (1 Bft) 0,00 %
27.07.2015 15:44 24,6 C 43 % 1005,7 hPa 0,0 l/m 3,2 km/h (1 Bft) NW 304 0 min 0,000 mm 4,0 UV-I 120 W/m 11,2 C 24,6 C 7,9 km/h (2 Bft) 0,00 %
27.07.2015 15:49 24,6 C 45 % 1005,6 hPa 0,0 l/m 0,4 km/h (0 Bft) N-NO 31 0 min 0,000 mm 3,0 UV-I 120 W/m 11,9 C 24,6 C 4,0 km/h (1 Bft) 0,00 %
27.07.2015 15:54 24,6 C 42 % 1005,6 hPa 0,0 l/m 4,0 km/h (1 Bft) NW 310 0 min 0,000 mm 3,0 UV-I 100 W/m 10,8 C 24,6 C 7,9 km/h (2 Bft) 0,00 %
27.07.2015 15:59 24,9 C 44 % 1005,5 hPa 0,0 l/m 7,9 km/h (2 Bft) W 261 0 min 0,000 mm 3,0 UV-I 100 W/m 11,8 C 24,5 C 11,9 km/h (2 Bft) 0,00 %
27.07.2015 16:04 25,1 C 42 % 1005,3 hPa 0,0 l/m 8,3 km/h (2 Bft) W-SW 243 0 min 0,000 mm 3,0 UV-I 100 W/m 11,3 C 24,6 C 11,9 km/h (2 Bft) 0,00 %
27.07.2015 16:09 25,2 C 42 % 1005,4 hPa 0,0 l/m 7,2 km/h (2 Bft) W-NW 300 0 min 0,000 mm 3,0 UV-I 100 W/m 11,4 C 25,0 C 11,9 km/h (2 Bft) 0,00 %
27.07.2015 16:14 25,1 C 41 % 1005,3 hPa 0,0 l/m 6,8 km/h (2 Bft) N-NW 334 0 min 0,000 mm 3,0 UV-I 100 W/m 10,9 C 25,0 C 11,9 km/h (2 Bft) 0,00 %
27.07.2015 16:19 25,1 C 42 % 1005,4 hPa 0,0 l/m 0,7 km/h (0 Bft) NW 315 0 min 0,000 mm 2,0 UV-I 100 W/m 11,3 C 25,1 C 4,0 km/h (1 Bft) 0,00 %
27.07.2015 16:24 25,2 C 42 % 1005,3 hPa 0,0 l/m 8,3 km/h (2 Bft) SW 233 0 min 0,000 mm 1,0 UV-I 100 W/m 11,4 C 24,7 C 11,9 km/h (2 Bft) 0,00 %
27.07.2015 16:29 24,8 C 43 % 1005,2 hPa 0,0 l/m 1,8 km/h (1 Bft) NO 38 0 min 0,000 mm 2,0 UV-I 100 W/m 11,4 C 24,8 C 4,0 km/h (1 Bft) 0,00 %
27.07.2015 16:34 24,5 C 42 % 1005,3 hPa 0,0 l/m 1,8 km/h (1 Bft) NO 53 0 min 0,000 mm 3,0 UV-I 100 W/m 10,7 C 24,5 C 4,0 km/h (1 Bft) 0,00 %
27.07.2015 16:39 24,6 C 40 % 1005,2 hPa 0,0 l/m 5,8 km/h (2 Bft) NO 53 0 min 0,000 mm 3,0 UV-I 100 W/m 10,1 C 24,6 C 11,9 km/h (2 Bft) 0,00 %
27.07.2015 16:44 24,8 C 35 % 1005,2 hPa 0,0 l/m 1,8 km/h (1 Bft) N 350 0 min 0,000 mm 3,0 UV-I 100 W/m 8,3 C 24,8 C 4,0 km/h (1 Bft) 0,00 %
27.07.2015 16:49 25,1 C 32 % 1005,3 hPa 0,0 l/m 1,8 km/h (1 Bft) W 260 0 min 0,000 mm 1,0 UV-I 300 W/m 7,2 C 25,1 C 4,0 km/h (1 Bft) 0,00 %
27.07.2015 16:54 25,3 C 33 % 1005,3 hPa 0,0 l/m 9,0 km/h (2 Bft) W-SW 255 0 min 0,000 mm 1,0 UV-I 300 W/m 7,9 C 24,7 C 11,9 km/h (2 Bft) 0,00 %
27.07.2015 16:59 25,0 C 34 % 1005,5 hPa 0,0 l/m 5,8 km/h (2 Bft) W-SW 255 0 min 0,000 mm 1,0 UV-I 300 W/m 8,0 C 25,0 C 7,9 km/h (2 Bft) 0,00 %
27.07.2015 17:04 24,6 C 35 % 1005,4 hPa 0,0 l/m 0,7 km/h (0 Bft) N 350 0 min 0,000 mm 1,0 UV-I 200 W/m 8,1 C 24,6 C 4,0 km/h (1 Bft) 0,00 %
27.07.2015 17:09 24,3 C 35 % 1005,4 hPa 0,0 l/m 0,4 km/h (0 Bft) SW 220 5 min 0,000 mm 1,0 UV-I 600 W/m 7,8 C 24,3 C 4,0 km/h (1 Bft) 0,00 %
27.07.2015 17:14 24,4 C 35 % 1005,2 hPa 0,0 l/m 0,0 km/h (0 Bft) O 93 0 min 0,000 mm 1,0 UV-I 100 W/m 7,9 C 24,4 C 0,0 km/h (0 Bft) 0,00 %
27.07.2015 17:19 25,0 C 32 % 1005,3 hPa 0,0 l/m 4,0 km/h (1 Bft) W-NW 302 0 min 0,000 mm 1,0 UV-I 111 W/m 7,1 C 25,0 C 4,0 km/h (1 Bft) 0,00 %
27.07.2015 17:24 25,5 C 32 % 1005,2 hPa 0,0 l/m 19,8 km/h (3 Bft) W-NW 285 0 min 0,000 mm 1,0 UV-I 111 W/m 7,6 C 23,3 C 28,1 km/h (4 Bft) 0,00 %
27.07.2015 17:29 25,7 C 31 % 1005,3 hPa 0,0 l/m 9,7 km/h (2 Bft) W-SW 256 0 min 0,000 mm 1,0 UV-I 111 W/m 7,3 C 25,0 C 11,9 km/h (2 Bft) 0,00 %
27.07.2015 17:34 25,8 C 29 % 1005,2 hPa 0,0 l/m 4,3 km/h (1 Bft) W-SW 242 0 min 0,000 mm 1,0 UV-I 111 W/m 6,4 C 25,8 C 7,9 km/h (2 Bft) 0,00 %
27.07.2015 17:39 25,9 C 31 % 1005,4 hPa 0,0 l/m 2,2 km/h (1 Bft) N-NW 327 0 min 0,000 mm 1,0 UV-I 111 W/m 7,5 C 25,9 C 4,0 km/h (1 Bft) 0,00 %
27.07.2015 17:44 25,8 C 34 % 1005,3 hPa 0,0 l/m 3,2 km/h (1 Bft) N-NW 348 5 min 0,000 mm 1,0 UV-I 700 W/m 8,7 C 25,8 C 7,9 km/h (2 Bft) 0,00 %
27.07.2015 17:49 25,5 C 36 % 1005,4 hPa 0,0 l/m 4,7 km/h (1 Bft) W 271 5 min 0,000 mm 1,0 UV-I 400 W/m 9,3 C 25,5 C 7,9 km/h (2 Bft) 0,00 %
27.07.2015 17:54 25,2 C 39 % 1005,5 hPa 0,0 l/m 4,7 km/h (1 Bft) SW 235 0 min 0,000 mm 1,0 UV-I 200 W/m 10,2 C 25,2 C 7,9 km/h (2 Bft) 0,00 %
27.07.2015 17:59 24,7 C 40 % 1005,7 hPa 0,0 l/m 1,8 km/h (1 Bft) O 88 0 min 0,000 mm 1,0 UV-I 160 W/m 10,2 C 24,7 C 4,0 km/h (1 Bft) 0,00 %
27.07.2015 18:04 24,3 C 41 % 1006,2 hPa 0,0 l/m 4,7 km/h (1 Bft) N 4 0 min 0,000 mm 1,0 UV-I 160 W/m 10,2 C 24,3 C 7,9 km/h (2 Bft) 0,00 %
27.07.2015 18:09 23,8 C 46 % 1006,6 hPa 0,0 l/m 9,7 km/h (2 Bft) NW 310 5 min 0,000 mm 1,0 UV-I 800 W/m 11,5 C 22,9 C 15,8 km/h (3 Bft) 0,00 %
27.07.2015 18:14 23,0 C 51 % 1006,8 hPa 0,0 l/m 3,2 km/h (1 Bft) N-NO 26 5 min 0,000 mm 1,0 UV-I 500 W/m 12,3 C 23,0 C 4,0 km/h (1 Bft) 0,00 %
27.07.2015 18:19 21,6 C 57 % 1006,7 hPa 0,0 l/m 5,8 km/h (2 Bft) SW 216 5 min 0,000 mm 1,0 UV-I 700 W/m 12,7 C 21,6 C 7,9 km/h (2 Bft) 0,00 %
27.07.2015 18:24 20,5 C 58 % 1006,9 hPa 0,0 l/m 8,3 km/h (2 Bft) W-SW 256 0 min 0,000 mm 1,0 UV-I 200 W/m 11,9 C 19,8 C 15,8 km/h (3 Bft) 0,00 %
27.07.2015 18:29 19,9 C 60 % 1006,9 hPa 0,0 l/m 9,0 km/h (2 Bft) W-SW 256 5 min 0,000 mm 1,0 UV-I 800 W/m 11,9 C 18,9 C 11,9 km/h (2 Bft) 0,00 %
27.07.2015 18:34 19,8 C 59 % 1006,8 hPa 0,0 l/m 2,9 km/h (1 Bft) N 355 5 min 0,000 mm 1,0 UV-I 800 W/m 11,6 C 19,8 C 4,0 km/h (1 Bft) 0,00 %
27.07.2015 18:39 20,1 C 57 % 1006,8 hPa 0,0 l/m 0,7 km/h (0 Bft) S 183 5 min 0,000 mm 1,0 UV-I 800 W/m 11,3 C 20,1 C 4,0 km/h (1 Bft) 0,00 %
27.07.2015 18:44 20,3 C 57 % 1006,9 hPa 0,0 l/m 0,0 km/h (0 Bft) W-SW 253 5 min 0,000 mm 1,0 UV-I 800 W/m 11,5 C 20,3 C 0,0 km/h (0 Bft) 0,00 %
27.07.2015 18:49 20,5 C 56 % 1006,6 hPa 0,0 l/m 4,0 km/h (1 Bft) W-SW 256 5 min 0,000 mm 1,0 UV-I 800 W/m 11,4 C 20,5 C 4,0 km/h (1 Bft) 0,00 %
27.07.2015 18:54 20,6 C 55 % 1006,9 hPa 0,0 l/m 0,0 km/h (0 Bft) O-NO 65 5 min 0,000 mm 1,0 UV-I 400 W/m 11,2 C 20,6 C 0,0 km/h (0 Bft) 0,00 %
27.07.2015 18:59 20,6 C 54 % 1007,0 hPa 0,0 l/m 0,0 km/h (0 Bft) S 175 5 min 0,000 mm 1,0 UV-I 700 W/m 11,0 C 20,6 C 0,0 km/h (0 Bft) 0,00 %
27.07.2015 19:04 20,5 C 53 % 1007,0 hPa 0,0 l/m 0,0 km/h (0 Bft) O-NO 59 5 min 0,000 mm 1,0 UV-I 700 W/m 10,6 C 20,5 C 0,0 km/h (0 Bft) 0,00 %
27.07.2015 19:09 20,6 C 52 % 1006,9 hPa 0,0 l/m 0,0 km/h (0 Bft) O-NO 59 5 min 0,000 mm 1,0 UV-I 700 W/m 10,4 C 20,6 C 0,0 km/h (0 Bft) 0,00 %
27.07.2015 19:14 21,0 C 51 % 1007,0 hPa 0,0 l/m 0,0 km/h (0 Bft) N 352 5 min 0,000 mm 1,0 UV-I 600 W/m 10,5 C 21,0 C 0,0 km/h (0 Bft) 0,00 %
27.07.2015 19:19 21,4 C 49 % 1007,0 hPa 0,0 l/m 0,7 km/h (0 Bft) O-NO 59 5 min 0,000 mm 1,0 UV-I 600 W/m 10,2 C 21,4 C 4,0 km/h (1 Bft) 0,00 %
27.07.2015 19:24 21,5 C 51 % 1007,2 hPa 0,0 l/m 0,0 km/h (0 Bft) N-NO 19 5 min 0,000 mm 1,0 UV-I 600 W/m 10,9 C 21,5 C 0,0 km/h (0 Bft) 0,00 %
27.07.2015 19:29 21,3 C 49 % 1007,1 hPa 0,0 l/m 0,7 km/h (0 Bft) S-SW 194 5 min 0,000 mm 1,0 UV-I 500 W/m 10,1 C 21,3 C 4,0 km/h (1 Bft) 0,00 %
27.07.2015 19:34 21,1 C 51 % 1007,3 hPa 0,0 l/m 5,4 km/h (1 Bft) W-SW 256 5 min 0,000 mm 0,0 UV-I 500 W/m 10,6 C 21,1 C 11,9 km/h (2 Bft) 0,00 %
27.07.2015 19:39 21,0 C 52 % 1007,5 hPa 0,0 l/m 5,8 km/h (2 Bft) NW 325 5 min 0,000 mm 0,0 UV-I 500 W/m 10,8 C 21,0 C 11,9 km/h (2 Bft) 0,00 %
27.07.2015 19:44 20,7 C 52 % 1007,5 hPa 0,0 l/m 2,9 km/h (1 Bft) W-NW 285 5 min 0,000 mm 0,0 UV-I 500 W/m 10,5 C 20,7 C 4,0 km/h (1 Bft) 0,00 %
27.07.2015 19:49 20,5 C 52 % 1007,6 hPa 0,0 l/m 0,7 km/h (0 Bft) NW 321 5 min 0,000 mm 0,0 UV-I 400 W/m 10,3 C 20,5 C 4,0 km/h (1 Bft) 0,00 %
27.07.2015 19:54 20,4 C 53 % 1007,9 hPa 0,0 l/m 0,4 km/h (0 Bft) N-NW 348 5 min 0,000 mm 0,0 UV-I 400 W/m 10,5 C 20,4 C 4,0 km/h (1 Bft) 0,00 %
27.07.2015 19:59 20,3 C 53 % 1007,7 hPa 0,0 l/m 0,0 km/h (0 Bft) SW 231 5 min 0,000 mm 0,0 UV-I 300 W/m 10,4 C 20,3 C 0,0 km/h (0 Bft) 0,00 %
27.07.2015 20:04 20,2 C 54 % 1007,9 hPa 0,0 l/m 0,0 km/h (0 Bft) O-NO 65 5 min 0,000 mm 0,0 UV-I 300 W/m 10,6 C 20,2 C 0,0 km/h (0 Bft) 0,00 %
27.07.2015 20:09 20,0 C 56 % 1007,8 hPa 0,0 l/m 0,7 km/h (0 Bft) N-NO 26 5 min 0,000 mm 0,0 UV-I 900 W/m 11,0 C 20,0 C 4,0 km/h (1 Bft) 0,00 %
27.07.2015 20:14 19,8 C 56 % 1007,8 hPa 0,0 l/m 0,0 km/h (0 Bft) W-NW 299 5 min 0,000 mm 0,0 UV-I 600 W/m 10,8 C 19,8 C 0,0 km/h (0 Bft) 0,00 %
27.07.2015 20:19 19,4 C 59 % 1007,9 hPa 0,0 l/m 0,0 km/h (0 Bft) W 259 5 min 0,000 mm 0,0 UV-I 600 W/m 11,2 C 19,4 C 0,0 km/h (0 Bft) 0,00 %
27.07.2015 20:24 19,2 C 60 % 1007,8 hPa 0,0 l/m 0,0 km/h (0 Bft) N 356 5 min 0,000 mm 0,0 UV-I 600 W/m 11,2 C 19,2 C 0,0 km/h (0 Bft) 0,00 %
27.07.2015 20:29 19,0 C 61 % 1008,2 hPa 0,0 l/m 0,0 km/h (0 Bft) N 351 5 min 0,000 mm 0,0 UV-I 666 W/m 11,3 C 19,0 C 0,0 km/h (0 Bft) 0,00 %
27.07.2015 20:34 18,8 C 61 % 1008,2 hPa 0,0 l/m 0,0 km/h (0 Bft) NO 44 5 min 0,000 mm 0,0 UV-I 200 W/m 11,1 C 18,8 C 0,0 km/h (0 Bft) 0,00 %
27.07.2015 20:39 18,6 C 62 % 1008,3 hPa 0,0 l/m 0,0 km/h (0 Bft) NO 38 0 min 0,000 mm 0,0 UV-I 200 W/m 11,2 C 18,6 C 0,0 km/h (0 Bft) 0,00 %
27.07.2015 20:44 18,4 C 63 % 1008,2 hPa 0,0 l/m 0,0 km/h (0 Bft) NO 49 0 min 0,000 mm 0,0 UV-I 10 W/m 11,2 C 18,4 C 0,0 km/h (0 Bft) 0,00 %
27.07.2015 20:49 18,1 C 63 % 1008,3 hPa 0,0 l/m 0,0 km/h (0 Bft) N 355 0 min 0,000 mm 0,0 UV-I 0 W/m 10,9 C 18,1 C 0,0 km/h (0 Bft) 0,00 %
27.07.2015 20:54 17,9 C 65 % 1008,2 hPa 0,0 l/m 0,0 km/h (0 Bft) NO 47 0 min 0,000 mm 0,0 UV-I 0 W/m 11,2 C 17,9 C 0,0 km/h (0 Bft) 0,00 %
27.07.2015 20:59 17,7 C 65 % 1008,4 hPa 0,0 l/m 0,4 km/h (0 Bft) NO 50 0 min 0,000 mm 0,0 UV-I 0 W/m 11,0 C 17,7 C 4,0 km/h (1 Bft) 0,00 %
27.07.2015 21:04 17,5 C 66 % 1008,6 hPa 0,0 l/m 0,0 km/h (0 Bft) NO 46 0 min 0,000 mm 0,0 UV-I 0 W/m 11,1 C 17,5 C 0,0 km/h (0 Bft) 0,00 %
27.07.2015 21:09 17,4 C 67 % 1008,5 hPa 0,0 l/m 0,4 km/h (0 Bft) NO 42 0 min 0,000 mm 0,0 UV-I 0 W/m 11,2 C 17,4 C 4,0 km/h (1 Bft) 0,00 %
27.07.2015 21:14 17,4 C 66 % 1008,6 hPa 0,0 l/m 0,0 km/h (0 Bft) NO 36 0 min 0,000 mm 0,0 UV-I 0 W/m 11,0 C 17,4 C 0,0 km/h (0 Bft) 0,00 %
27.07.2015 21:19 17,4 C 66 % 1008,6 hPa 0,0 l/m 0,0 km/h (0 Bft) NO 45 0 min 0,000 mm 0,0 UV-I 0 W/m 11,0 C 17,4 C 0,0 km/h (0 Bft) 0,00 %
27.07.2015 21:24 17,4 C 66 % 1008,6 hPa 0,0 l/m 0,7 km/h (0 Bft) NW 318 0 min 0,000 mm 0,0 UV-I 0 W/m 11,0 C 17,4 C 4,0 km/h (1 Bft) 0,00 %
27.07.2015 21:29 17,4 C 65 % 1008,7 hPa 0,0 l/m 0,0 km/h (0 Bft) NO 55 0 min 0,000 mm 0,0 UV-I 0 W/m 10,8 C 17,4 C 0,0 km/h (0 Bft) 0,00 %
27.07.2015 21:34 17,5 C 66 % 1008,7 hPa 0,0 l/m 0,0 km/h (0 Bft) W-NW 285 0 min 0,000 mm 0,0 UV-I 0 W/m 11,1 C 17,5 C 0,0 km/h (0 Bft) 0,00 %
27.07.2015 21:39 17,6 C 65 % 1008,8 hPa 0,0 l/m 0,0 km/h (0 Bft) SW 217 0 min 0,000 mm 0,0 UV-I 0 W/m 10,9 C 17,6 C 0,0 km/h (0 Bft) 0,00 %
27.07.2015 21:44 17,6 C 65 % 1008,7 hPa 0,0 l/m 0,0 km/h (0 Bft) N-NO 31 0 min 0,000 mm 0,0 UV-I 0 W/m 10,9 C 17,6 C 0,0 km/h (0 Bft) 0,00 %
27.07.2015 21:49 17,7 C 66 % 1008,9 hPa 0,0 l/m 0,0 km/h (0 Bft) NO 36 0 min 0,000 mm 0,0 UV-I 0 W/m 11,3 C 17,7 C 0,0 km/h (0 Bft) 0,00 %
27.07.2015 21:54 17,7 C 67 % 1009,0 hPa 0,0 l/m 0,0 km/h (0 Bft) NO 44 0 min 0,000 mm 0,0 UV-I 0 W/m 11,5 C 17,7 C 0,0 km/h (0 Bft) 0,00 %
27.07.2015 21:59 17,7 C 67 % 1009,0 hPa 0,0 l/m 0,0 km/h (0 Bft) N-NO 25 0 min 0,000 mm 0,0 UV-I 0 W/m 11,5 C 17,7 C 0,0 km/h (0 Bft) 0,00 %
27.07.2015 22:04 17,7 C 67 % 1009,2 hPa 0,0 l/m 0,0 km/h (0 Bft) N-NW 339 0 min 0,000 mm 0,0 UV-I 0 W/m 11,5 C 17,7 C 0,0 km/h (0 Bft) 0,00 %
27.07.2015 22:09 17,7 C 66 % 1009,2 hPa 0,0 l/m 0,0 km/h (0 Bft) N 355 0 min 0,000 mm 0,0 UV-I 0 W/m 11,3 C 17,7 C 0,0 km/h (0 Bft) 0,00 %
27.07.2015 22:14 17,6 C 68 % 1009,3 hPa 0,0 l/m 0,0 km/h (0 Bft) O 82 0 min 0,000 mm 0,0 UV-I 0 W/m 11,6 C 17,6 C 0,0 km/h (0 Bft) 0,00 %
27.07.2015 22:19 17,6 C 68 % 1009,3 hPa 0,0 l/m 0,0 km/h (0 Bft) O-NO 57 0 min 0,000 mm 0,0 UV-I 0 W/m 11,6 C 17,6 C 0,0 km/h (0 Bft) 0,00 %
27.07.2015 22:24 17,5 C 70 % 1009,5 hPa 0,0 l/m 0,0 km/h (0 Bft) O-NO 57 0 min 0,000 mm 0,0 UV-I 0 W/m 12,0 C 17,5 C 0,0 km/h (0 Bft) 0,00 %
27.07.2015 22:29 17,4 C 70 % 1009,7 hPa 0,0 l/m 0,0 km/h (0 Bft) NO 55 0 min 0,000 mm 0,0 UV-I 0 W/m 11,9 C 17,4 C 0,0 km/h (0 Bft) 0,00 %
27.07.2015 22:34 17,1 C 70 % 1009,7 hPa 0,0 l/m 0,0 km/h (0 Bft) NO 54 0 min 0,000 mm 0,0 UV-I 0 W/m 11,6 C 17,1 C 0,0 km/h (0 Bft) 0,00 %
27.07.2015 22:39 16,9 C 71 % 1009,6 hPa 0,0 l/m 0,0 km/h (0 Bft) NO 53 0 min 0,000 mm 0,0 UV-I 0 W/m 11,6 C 16,9 C 0,0 km/h (0 Bft) 0,00 %
27.07.2015 22:44 16,7 C 74 % 1009,7 hPa 0,0 l/m 0,0 km/h (0 Bft) NO 50 0 min 0,000 mm 0,0 UV-I 0 W/m 12,0 C 16,7 C 0,0 km/h (0 Bft) 0,00 %
27.07.2015 22:49 16,6 C 74 % 1009,5 hPa 0,0 l/m 0,0 km/h (0 Bft) NO 46 0 min 0,000 mm 0,0 UV-I 0 W/m 11,9 C 16,6 C 0,0 km/h (0 Bft) 0,00 %
27.07.2015 22:54 16,4 C 76 % 1009,7 hPa 0,0 l/m 0,0 km/h (0 Bft) NO 56 0 min 0,000 mm 0,0 UV-I 0 W/m 12,2 C 16,4 C 0,0 km/h (0 Bft) 0,00 %
27.07.2015 22:59 16,2 C 76 % 1009,6 hPa 0,0 l/m 0,0 km/h (0 Bft) NO 36 0 min 0,000 mm 0,0 UV-I 0 W/m 12,0 C 16,2 C 0,0 km/h (0 Bft) 0,00 %
27.07.2015 23:04 16,1 C 76 % 1009,5 hPa 0,0 l/m 0,0 km/h (0 Bft) N-NO 31 0 min 0,000 mm 0,0 UV-I 0 W/m 11,9 C 16,1 C 0,0 km/h (0 Bft) 0,00 %
27.07.2015 23:09 16,1 C 76 % 1009,7 hPa 0,0 l/m 0,0 km/h (0 Bft) NO 41 0 min 0,000 mm 0,0 UV-I 0 W/m 11,9 C 16,1 C 0,0 km/h (0 Bft) 0,00 %
27.07.2015 23:14 16,0 C 76 % 1009,8 hPa 0,0 l/m 0,0 km/h (0 Bft) NO 45 0 min 0,000 mm 0,0 UV-I 0 W/m 11,8 C 16,0 C 0,0 km/h (0 Bft) 0,00 %
27.07.2015 23:19 16,0 C 77 % 1009,8 hPa 0,0 l/m 0,0 km/h (0 Bft) NO 34 0 min 0,000 mm 0,0 UV-I 0 W/m 12,0 C 16,0 C 0,0 km/h (0 Bft) 0,00 %
27.07.2015 23:24 16,0 C 76 % 1010,0 hPa 0,0 l/m 0,0 km/h (0 Bft) NO 51 0 min 0,000 mm 0,0 UV-I 0 W/m 11,8 C 16,0 C 0,0 km/h (0 Bft) 0,00 %
27.07.2015 23:29 16,0 C 76 % 1010,0 hPa 0,0 l/m 0,0 km/h (0 Bft) NO 36 0 min 0,000 mm 0,0 UV-I 0 W/m 11,8 C 16,0 C 0,0 km/h (0 Bft) 0,00 %
27.07.2015 23:34 16,1 C 75 % 1009,8 hPa 0,0 l/m 0,0 km/h (0 Bft) N-NO 33 0 min 0,000 mm 0,0 UV-I 0 W/m 11,7 C 16,1 C 0,0 km/h (0 Bft) 0,00 %
27.07.2015 23:39 16,2 C 73 % 1010,0 hPa 0,0 l/m 0,0 km/h (0 Bft) N-NO 33 0 min 0,000 mm 0,0 UV-I 0 W/m 11,4 C 16,2 C 0,0 km/h (0 Bft) 0,00 %
27.07.2015 23:44 16,4 C 71 % 1009,9 hPa 0,0 l/m 0,0 km/h (0 Bft) NO 46 0 min 0,000 mm 0,0 UV-I 0 W/m 11,1 C 16,4 C 0,0 km/h (0 Bft) 0,00 %
27.07.2015 23:49 16,5 C 70 % 1009,9 hPa 0,0 l/m 0,0 km/h (0 Bft) NO 39 0 min 0,000 mm 0,0 UV-I 0 W/m 11,0 C 16,5 C 0,0 km/h (0 Bft) 0,00 %
27.07.2015 23:54 16,7 C 68 % 1009,9 hPa 0,0 l/m 0,0 km/h (0 Bft) NO 41 0 min 0,000 mm 0,0 UV-I 0 W/m 10,8 C 16,7 C 0,0 km/h (0 Bft) 0,00 %
27.07.2015 23:59 16,8 C 64 % 1009,9 hPa 0,0 l/m 0,0 km/h (0 Bft) NO 36 0 min 0,000 mm 0,0 UV-I 0 W/m 10,0 C 16,8 C 0,0 km/h (0 Bft) 0,00 %
_ Min-Zeit 05:30 17:34 16:29 - 00:04 - - - - - - 17:34 05:30 00:04 00:04
Minimum _ 13,4 C 29 % 1005,2 hPa - 0,0 km/h (0 Bft) - - - - - - 6,4 C 13,4 C 0,0 km/h (0 Bft) 0,00 %
_ Max-Zeit 17:39 06:10 23:24 06:05 17:24 - - 08:35 00:04 12:59 20:09 10:43 17:39 17:24 00:04
Maximum _ 25,9 C 96 % 1010,0 hPa 0,6 l/m 19,8 km/h
W-NW (3 Bft)
- - 5 min 0,000 mm 6,0 UV-I 900 W/m 14,6 C 25,9 C 28,1 km/h
W-NW (4 Bft)
0,00 %
Durchschnitt _ 18,0 C 71 % 1007,6 hPa #2,7 l/m 1,5 km/h (1 Bft) W-SW - #3:40 h #0,000 mm 2,2 UV-I 250 W/m 12,1 C 17,9 C 2,7 km/h (1 Bft) 0,00 %